Location: Kikino
(54.4440°N, 112.0940°W)
Time: 11:16:45
(UTC+00:00)

AO-27 - Pass Details

Date: 06 December 2023
Orbit: 783 x 797 km, 98.8° (Epoch: 22 February)

Event Time Altitude Azimuth Distance (km) Brightness Sun altitude
Exits shadow 03:59:15 11° 336° (NNW) 2,332 10.5 -41.0°
Drops below altitude 10° 03:59:23 10° 337° (NNW) 2,380 10.5 -41.0°
Sets 04:01:47 0° 342° (NNW) 3,316 11.3 -41.4°
